Location: Newark
(5.8900°S, 42.6378°W)
Time: 16:46:51
(UTC+00:00)

OTV 5 (USA 277) - Pass Details

Date: 26 August 2019
Orbit: 310 x 324 km, 54.5° (Epoch: 08 October)

Event Time Altitude Azimuth Distance (km) Brightness Sun altitude
Exits shadow 08:21:42 - 309° (NW) 1,648 ? -8.6°
Reaches altitude 10° 08:22:49 10° 302° (WNW) 1,208 ? -8.3°
Maximum altitude 08:25:15 31° 237° (WSW) 587 ? -7.7°
Drops below altitude 10° 08:27:43 10° 171° (S) 1,224 ? -7.1°
Sets 08:29:49 0° 160° (SSE) 2,061 ? -6.6°
